Location: Beccas
(43.4309°N, 0.1528°E)
Time: 11:00:08
(UTC+00:00)

Gbstr 26 Del rocket - Pass Details

Date: 15 October 2021
Orbit: 492 x 1263 km, 51.8° (Epoch: 07 December)

Event Time Altitude Azimuth Distance (km) Brightness Sun altitude
Rises 19:37:13 0° 301° (WNW) 3,871 8.3 -26.3°
Reaches altitude 10° 19:39:48 10° 303° (WNW) 3,002 7.4 -26.7°
Maximum altitude 19:47:20 80° 30° (NNE) 1,248 4.4 -28.1°
Enters shadow 19:48:48 63° 100° (E) 1,371 4.4 -28.3°
